Location: Quedlinburg
(51.7921°N, 11.1414°E)
Time: 17:27:44
(UTC+02:00)

NOAA 18 - Pass Details

Date: 18 March 2026
Orbit: 837 x 857 km, 98.8° (Epoch: 15 April)

Event Time Altitude Azimuth Distance (km) Brightness Sun altitude
Exits shadow 20:47:37 22° 58° (ENE) 1,760 6.6 -21.9°
Maximum altitude 20:47:50 22° 55° (NE) 1,758 6.6 -22.0°
Drops below altitude 10° 20:51:54 10° 6° (N) 2,465 7.9 -22.5°
Sets 20:54:45 0° 352° (N) 3,405 8.9 -22.9°
